Weather History for HESN - June, 2013

Change the Weather History Date:

Saturday, June 22, 2013

  Actual Average Record
Temperature  
Mean Temperature 94 °F -  
Max Temperature 107 °F 104 °F 113 °F (2012)
Min Temperature 82 °F 80 °F 76 °F (2014)
Cooling Degree Days 30    
Growing Degree Days 44 (Base 50)    
Moisture  
Dew Point 33 °F    
Average Humidity 10    
Maximum Humidity 17    
Minimum Humidity 4    
Precipitation  
Precipitation 0.00 in 0.00 in - ()
Sea Level Pressure  
Sea Level Pressure 29.72 in    
Wind  
Wind Speed 6 mph ()    
Max Wind Speed 16 mph    
Max Gust Speed -    
Visibility 6.0 miles    
Events      
Averages and records for this station are not official NWS values.
T = Trace of Precipitation, MM = Missing Value Source: Averaged Metar Reports

Daily Weather History Graph

Daily Weather History Graph

Search for Another Location

Airport or City:

Trip Planner

Search our weather history database for the weather conditions in past years. The results will help you decide how hot, cold, wet, or windy it might be!

Date:

Astronomy

Jun. 22, 2013 Rise Set
Actual Time 5:02 AM EET 6:39 PM EET
Civil Twilight 4:36 AM EET 7:04 PM EET
Nautical Twilight 4:06 AM EET 7:35 PM EET
Astronomical Twilight 3:34 AM EET 8:07 PM EET
Moon 5:38 PM EET 3:47 AM EET
Length of Visible Light 14h 28m
Length of Day
13h 37m
Waxing Gibbous, 98% of the Moon is Illuminated
Jun 22
Waxing Gibbous
Jun 23
Full
Jun 30
Last Quarter
Jul 8
New
Jul 16
First Quarter

Hourly Weather History & Observations

Time (EET) Temp. Dew Point Humidity Pressure Visibility Wind Dir Wind Speed Gust Speed Precip Events Conditions
12:00 AM 89.6 °F 30.2 °F 12% 29.74 in - West 2.3 mph - N/A   Clear
1:00 AM 87.8 °F 28.4 °F 12% 29.71 in - West 5.8 mph - N/A   Clear
2:00 AM 85 °F 31 °F 7% 29.73 in 6 mi West 5.8 mph - -  
2:00 AM 86.0 °F 30.2 °F 13% 29.71 in - West 5.8 mph - N/A   Clear
3:00 AM 84.2 °F 30.2 °F 14% 29.71 in - West 4.6 mph - N/A   Clear
4:00 AM 82.4 °F 30.2 °F 15% 29.71 in - West 4.6 mph - N/A   Clear
5:00 AM 84.2 °F 32.0 °F 15% 29.71 in - WNW 3.5 mph - N/A   Clear
6:00 AM 84.2 °F 32.0 °F 15% 29.71 in - WNW 3.5 mph - N/A   Clear
7:00 AM 80.6 °F 30.2 °F 16% 29.71 in - West 5.8 mph - N/A   Clear
8:00 AM 96 °F 41 °F 8% 29.72 in 6 mi NW 8.1 mph - -  
8:00 AM 96.8 °F 41.0 °F 15% 29.77 in - NW 8.1 mph - N/A   Clear
9:00 AM 98.6 °F 46.4 °F 17% 29.77 in - SE 3.5 mph - N/A   Clear
10:00 AM 100.4 °F 42.8 °F 14% 29.77 in - South 5.8 mph - N/A   Clear
11:00 AM 102.2 °F 33.8 °F 9% 29.77 in - West 11.5 mph - N/A   Clear
12:00 PM 104.0 °F 33.8 °F 9% 29.77 in - WSW 9.2 mph - N/A   Clear
1:00 PM 105.8 °F 32.0 °F 8% 29.77 in - West 10.4 mph - N/A   Clear
2:00 PM 106 °F 33 °F 4% 29.67 in 6 mi WNW 10.4 mph - -   Clear
2:00 PM 105.8 °F 32.0 °F 8% 29.71 in - WNW 10.4 mph - N/A   Clear
3:00 PM 107.6 °F 33.8 °F 8% 29.71 in - West 10.4 mph - N/A   Clear
4:00 PM 105.8 °F 30.2 °F 7% 29.68 in - WNW 16.1 mph - N/A   Clear
5:00 PM 105.8 °F 32.0 °F 8% 29.68 in - West 13.8 mph - N/A   Clear
6:00 PM 104.0 °F 32.0 °F 8% 29.68 in - West 12.7 mph - N/A   Clear
7:00 PM 102.2 °F 30.2 °F 8% 29.68 in - WNW 6.9 mph - N/A   Clear
8:00 PM 99 °F 30 °F 4% 29.67 in 6 mi NW 5.8 mph - -  
8:00 PM 98.6 °F 30.2 °F 9% 29.71 in - WNW 11.5 mph - N/A   Clear
9:00 PM 96.8 °F 28.4 °F 9% 29.71 in - WNW 9.2 mph - N/A   Clear
10:00 PM 95.0 °F 28.4 °F 9% 29.74 in - WNW 9.2 mph - N/A   Clear
11:00 PM 91.4 °F 30.2 °F 11% 29.74 in - WNW 6.9 mph - N/A   Clear